This demonstration page uses our WeatherBlox Daily Observations layout. Learn more.

Left ArrowRight Arrow

Hourly Observations for January 11, 2022

Temp ( °F °C ) Dew Point ( °F °C ) Humidity (%) Winds ( mph kmh ) Pressure ( in mb ) Visibility ( mi km ) Precip ( " mm )
12:52 am 00:52 Clear 26 -3.3 20 -6.7 78 78 SSE 5 7 30.53 1034 9 14 0.00 0.00
1:52 am 01:52 Clear 26 -3.3 20 -6.7 78 78 S 3 6 30.51 1033 10 16 0.00 0.00
2:52 am 02:52 Clear 25 -3.9 20 -6.7 81 81 S 7 11 30.50 1033 10 16 0.00 0.00
3:52 am 03:52 Clear 28 -2.2 20 -6.7 72 72 SSE 9 15 30.50 1033 10 16 0.00 0.00
4:52 am 04:52 Clear 28 -2.2 21 -6.1 75 75 S 7 11 30.50 1033 10 16 0.00 0.00
5:52 am 05:52 Clear 28 -2.2 21 -6.1 75 75 S 6 9 30.51 1033 10 16 0.00 0.00
6:52 am 06:52 Clear 28 -2.2 21 -6.1 75 75 S 10 17 30.52 1033 10 16 0.00 0.00
7:52 am 07:52 Sunny 30 -1.1 22 -5.6 72 72 S 10 17 30.51 1033 10 16 0.00 0.00
8:52 am 08:52 Sunny 34 1.1 22 -5.6 61 61 S 12 19 30.50 1033 10 16 0.00 0.00
9:52 am 09:52 Sunny 39 3.9 23 -5 53 53 S 12 19 30.50 1033 7 11 0.00 0.00
10:52 am 10:52 Sunny 46 7.8 22 -5.6 38 38 SSW 14 22 30.48 1032 10 16 0.00 0.00
11:52 am 11:52 Sunny 50 10 21 -6.1 32 32 SSW 14 22 30.42 1030 10 16 0.00 0.00
12:52 pm 12:52 Sunny 54 12.2 21 -6.1 28 28 SW 17 28 30.37 1028 10 16 0.00 0.00
1:52 pm 13:52 Sunny 56 13.3 20 -6.7 24 24 SSW 20 31 30.33 1027 10 16 0.00 0.00
2:52 pm 14:52 Sunny 56 13.3 20 -6.7 24 24 SW 21 33 30.31 1026 10 16 0.00 0.00
3:52 pm 15:52 Sunny 55 12.8 21 -6.1 26 26 SW 13 20 30.30 1026 10 16 0.00 0.00
4:52 pm 16:52 Sunny 51 10.6 21 -6.1 31 31 SSW 12 19 30.29 1026 10 16 0.00 0.00
5:52 pm 17:52 Clear 43 6.1 21 -6.1 42 42 S 12 19 30.29 1026 10 16 0.00 0.00
6:52 pm 18:52 Clear 46 7.8 20 -6.7 35 35 SSW 14 22 30.29 1026 10 16 0.00 0.00
7:52 pm 19:52 Clear 42 5.6 21 -6.1 43 43 SSW 13 20 30.29 1026 10 16 0.00 0.00
8:52 pm 20:52 Clear 42 5.6 21 -6.1 43 43 S 13 20 30.28 1025 10 16 0.00 0.00
9:52 pm 21:52 Clear 40 4.4 22 -5.6 49 49 SSW 10 17 30.27 1025 10 16 0.00 0.00
10:52 pm 22:52 Clear 40 4.4 23 -5 51 51 SSW 12 19 30.27 1025 10 16 0.00 0.00
11:52 pm 23:52 Clear 42 5.6 23 -5 47 47 SSW 10 17 30.24 1024 10 16 0.00 0.00

Powered by AerisWeather